Time,TemperatureF,DewpointF,PressureIn,WindDirection,WindDirectionDegrees,WindSpeedMPH,WindSpeedGustMPH,Humidity,HourlyPrecipIn,Conditions,Clouds,dailyrainin,SoftwareType,DateUTC
2013-04-05 00:02:00,54.0,53.0,30.11,SSE,147,0.0,-999.0,95,-99.99,,,-99.99,,2013-04-05 07:02:00,
2013-04-05 00:12:00,54.0,53.0,30.11,SSE,147,0.0,-999.0,95,-99.99,,,-99.99,,2013-04-05 07:12:00,
2013-04-05 00:22:00,54.0,53.0,30.12,SSE,147,0.0,-999.0,95,-99.99,,,-99.99,,2013-04-05 07:22:00,
2013-04-05 00:31:00,54.0,53.0,30.12,SSE,147,0.0,-999.0,95,-99.99,,,-99.99,,2013-04-05 07:31:00,
2013-04-05 00:42:00,54.0,53.0,30.12,SSE,147,0.0,-999.0,95,-99.99,,,-99.99,,2013-04-05 07:42:00,
2013-04-05 00:52:00,54.0,53.0,30.12,SSE,147,0.0,-999.0,95,-99.99,,,-99.99,,2013-04-05 07:52:00,
2013-04-05 01:02:00,54.0,53.0,30.12,SSE,147,0.0,-999.0,95,-99.99,,,-99.99,,2013-04-05 08:02:00,
2013-04-05 01:12:00,54.0,53.0,30.12,SSE,147,0.0,-999.0,95,-99.99,,,-99.99,,2013-04-05 08:12:00,
2013-04-05 01:22:00,54.0,53.0,30.12,SSE,147,0.0,-999.0,95,-99.99,,,-99.99,,2013-04-05 08:22:00,
2013-04-05 01:32:00,54.0,53.0,30.12,SSE,147,0.0,-999.0,95,-99.99,,,-99.99,,2013-04-05 08:32:00,
2013-04-05 01:42:00,54.0,53.0,30.12,SSE,147,0.0,-999.0,95,-99.99,,,-99.99,,2013-04-05 08:42:00,
2013-04-05 01:52:00,54.0,53.0,30.12,SSE,147,0.0,-999.0,95,-99.99,,,-99.99,,2013-04-05 08:52:00,
2013-04-05 02:02:00,54.0,53.0,30.12,SSE,147,0.0,-999.0,95,-99.99,,,-99.99,,2013-04-05 09:02:00,
2013-04-05 02:12:00,54.0,53.0,30.12,SSE,147,0.0,-999.0,95,-99.99,,,-99.99,,2013-04-05 09:12:00,
2013-04-05 02:22:00,54.0,53.0,30.11,SSE,147,0.0,-999.0,95,-99.99,,,-99.99,,2013-04-05 09:22:00,
2013-04-05 02:32:00,54.0,53.0,30.12,SSE,147,0.0,-999.0,95,-99.99,,,-99.99,,2013-04-05 09:32:00,
2013-04-05 02:42:00,54.0,53.0,30.12,SSE,147,0.0,-999.0,95,-99.99,,,-99.99,,2013-04-05 09:42:00,
2013-04-05 02:52:00,53.0,52.0,30.12,SSE,147,0.0,-999.0,95,-99.99,,,-99.99,,2013-04-05 09:52:00,
2013-04-05 03:02:00,53.0,52.0,30.12,SSE,147,0.0,-999.0,95,-99.99,,,-99.99,,2013-04-05 10:02:00,
2013-04-05 03:12:00,53.0,52.0,30.12,SSE,147,0.0,-999.0,95,-99.99,,,-99.99,,2013-04-05 10:12:00,
2013-04-05 03:23:00,53.0,52.0,30.12,SSE,147,0.0,-999.0,95,-99.99,,,-99.99,,2013-04-05 10:23:00,
2013-04-05 03:32:00,53.0,52.0,30.13,SSE,147,0.0,-999.0,95,-99.99,,,-99.99,,2013-04-05 10:32:00,
2013-04-05 03:42:00,53.0,52.0,30.13,SSE,147,0.0,-999.0,95,-99.99,,,-99.99,,2013-04-05 10:42:00,
2013-04-05 03:53:00,53.0,52.0,30.12,SSE,147,0.0,-999.0,95,-99.99,,,-99.99,,2013-04-05 10:53:00,
2013-04-05 04:02:00,53.0,52.0,30.12,SSE,147,0.0,-999.0,95,-99.99,,,-99.99,,2013-04-05 11:02:00,
2013-04-05 04:12:00,53.0,52.0,30.12,SSE,147,0.0,-999.0,95,-99.99,,,-99.99,,2013-04-05 11:12:00,
2013-04-05 04:21:00,53.0,52.0,30.12,SSE,147,0.0,-999.0,95,-99.99,,,-99.99,,2013-04-05 11:21:00,
2013-04-05 04:32:00,53.0,52.0,30.11,SSE,147,0.0,-999.0,95,-99.99,,,-99.99,,2013-04-05 11:32:00,
2013-04-05 04:42:00,53.0,52.0,30.11,SSE,147,0.0,-999.0,95,-99.99,,,-99.99,,2013-04-05 11:42:00,
2013-04-05 04:52:00,53.0,52.0,30.11,SSE,147,0.0,-999.0,95,-99.99,,,-99.99,,2013-04-05 11:52:00,
2013-04-05 05:02:00,52.0,51.0,30.12,SSE,147,0.0,-999.0,95,-99.99,,,-99.99,,2013-04-05 12:02:00,
2013-04-05 05:11:00,52.0,51.0,30.12,SSE,147,0.0,-999.0,95,-99.99,,,-99.99,,2013-04-05 12:11:00,
2013-04-05 05:22:00,52.0,51.0,30.12,SSE,147,0.0,-999.0,95,-99.99,,,-99.99,,2013-04-05 12:22:00,
2013-04-05 05:32:00,52.0,51.0,30.11,SSE,147,0.0,-999.0,95,-99.99,,,-99.99,,2013-04-05 12:32:00,
2013-04-05 05:42:00,52.0,51.0,30.11,SSE,147,0.0,-999.0,95,-99.99,,,-99.99,,2013-04-05 12:42:00,
2013-04-05 05:52:00,52.0,51.0,30.11,SSE,147,0.0,-999.0,95,-99.99,,,-99.99,,2013-04-05 12:52:00,
2013-04-05 06:02:00,52.0,51.0,30.12,SSE,147,0.0,-999.0,95,-99.99,,,-99.99,,2013-04-05 13:02:00,
2013-04-05 06:12:00,52.0,51.0,30.12,SSE,147,0.0,-999.0,95,-99.99,,,-99.99,,2013-04-05 13:12:00,
2013-04-05 06:22:00,52.0,51.0,30.12,SSE,147,0.0,-999.0,95,-99.99,,,-99.99,,2013-04-05 13:22:00,
2013-04-05 06:32:00,52.0,51.0,30.12,SSE,147,0.0,-999.0,95,-99.99,,,-99.99,,2013-04-05 13:32:00,
2013-04-05 06:42:00,52.0,51.0,30.12,SSE,147,0.0,-999.0,95,-99.99,,,-99.99,,2013-04-05 13:42:00,
2013-04-05 06:52:00,52.0,51.0,30.12,SSE,147,0.0,-999.0,95,-99.99,,,-99.99,,2013-04-05 13:52:00,
2013-04-05 07:02:00,52.0,51.0,30.12,SE,144,0.0,-999.0,95,-99.99,,,-99.99,,2013-04-05 14:02:00,
2013-04-05 07:12:00,52.0,51.0,30.12,SE,144,0.0,-999.0,95,-99.99,,,-99.99,,2013-04-05 14:12:00,
2013-04-05 07:22:00,52.0,51.0,30.13,SE,144,0.0,-999.0,95,-99.99,,,-99.99,,2013-04-05 14:22:00,
2013-04-05 07:34:00,52.0,51.0,30.13,SE,144,0.0,-999.0,95,-99.99,,,-99.99,,2013-04-05 14:34:00,
2013-04-05 07:42:00,52.0,51.0,30.13,SE,144,0.0,-999.0,95,-99.99,,,-99.99,,2013-04-05 14:42:00,
2013-04-05 07:53:00,52.0,51.0,30.14,SE,144,0.0,-999.0,96,-99.99,,,-99.99,,2013-04-05 14:53:00,
2013-04-05 08:02:00,53.0,52.0,30.14,SE,144,0.0,-999.0,96,-99.99,,,-99.99,,2013-04-05 15:02:00,
2013-04-05 08:12:00,53.0,52.0,30.14,SE,144,0.0,-999.0,96,-99.99,,,-99.99,,2013-04-05 15:12:00,
2013-04-05 08:22:00,53.0,52.0,30.15,SE,144,0.0,-999.0,96,-99.99,,,-99.99,,2013-04-05 15:22:00,
2013-04-05 08:32:00,53.0,52.0,30.15,SE,144,0.0,-999.0,96,-99.99,,,-99.99,,2013-04-05 15:32:00,
2013-04-05 08:42:00,53.0,52.0,30.15,SE,144,0.0,-999.0,96,-99.99,,,-99.99,,2013-04-05 15:42:00,
2013-04-05 08:53:00,53.0,52.0,30.15,SE,141,1.0,-999.0,95,-99.99,,,-99.99,,2013-04-05 15:53:00,
2013-04-05 09:02:00,54.0,53.0,30.15,SE,141,0.0,-999.0,95,-99.99,,,-99.99,,2013-04-05 16:02:00,
2013-04-05 09:13:00,54.0,53.0,30.15,SE,141,0.0,-999.0,95,-99.99,,,-99.99,,2013-04-05 16:13:00,
2013-04-05 09:22:00,55.0,53.0,30.15,SE,141,0.0,-999.0,94,-99.99,,,-99.99,,2013-04-05 16:22:00,
2013-04-05 09:32:00,55.0,53.0,30.15,SE,141,0.0,-999.0,93,-99.99,,,-99.99,,2013-04-05 16:32:00,
2013-04-05 09:42:00,55.0,53.0,30.15,SE,141,0.0,-999.0,93,-99.99,,,-99.99,,2013-04-05 16:42:00,
2013-04-05 09:52:00,56.0,53.0,30.16,SE,141,0.0,-999.0,91,-99.99,,,-99.99,,2013-04-05 16:52:00,
2013-04-05 10:02:00,56.0,53.0,30.16,SE,141,0.0,-999.0,90,-99.99,,,-99.99,,2013-04-05 17:02:00,
2013-04-05 10:12:00,56.0,53.0,30.16,SE,141,0.0,-999.0,90,-99.99,,,-99.99,,2013-04-05 17:12:00,
2013-04-05 10:22:00,57.0,54.0,30.16,SE,141,0.0,-999.0,90,-99.99,,,-99.99,,2013-04-05 17:22:00,
2013-04-05 10:32:00,58.0,54.0,30.16,SE,141,0.0,-999.0,86,-99.99,,,-99.99,,2013-04-05 17:32:00,
2013-04-05 10:44:00,58.0,54.0,30.16,SE,141,0.0,-999.0,86,-99.99,,,-99.99,,2013-04-05 17:44:00,
2013-04-05 10:52:00,58.0,53.0,30.17,SE,141,0.0,-999.0,84,-99.99,,,-99.99,,2013-04-05 17:52:00,
2013-04-05 11:02:00,57.0,52.0,30.17,SE,141,0.0,-999.0,83,-99.99,,,-99.99,,2013-04-05 18:02:00,
2013-04-05 11:12:00,57.0,52.0,30.17,SE,141,0.0,-999.0,83,-99.99,,,-99.99,,2013-04-05 18:12:00,
2013-04-05 11:22:00,57.0,52.0,30.17,SE,141,0.0,-999.0,83,-99.99,,,-99.99,,2013-04-05 18:22:00,
2013-04-05 11:32:00,58.0,52.0,30.18,NNW,342,0.0,-999.0,80,-99.99,,,-99.99,,2013-04-05 18:32:00,
2013-04-05 11:42:00,58.0,52.0,30.18,NNW,342,0.0,-999.0,80,-99.99,,,-99.99,,2013-04-05 18:42:00,
2013-04-05 11:52:00,58.0,53.0,30.18,South,184,0.0,-999.0,84,-99.99,,,-99.99,,2013-04-05 18:52:00,
2013-04-05 12:02:00,58.0,53.0,30.18,SW,236,0.0,-999.0,83,-99.99,,,-99.99,,2013-04-05 19:02:00,
2013-04-05 12:12:00,58.0,53.0,30.18,SW,236,0.0,-999.0,83,-99.99,,,-99.99,,2013-04-05 19:12:00,
2013-04-05 12:22:00,59.0,54.0,30.19,North,355,1.0,-999.0,82,-99.99,,,-99.99,,2013-04-05 19:22:00,
2013-04-05 12:32:00,59.0,54.0,30.19,North,355,1.0,-999.0,82,-99.99,,,-99.99,,2013-04-05 19:32:00,
2013-04-05 12:41:00,59.0,54.0,30.19,North,355,1.0,-999.0,82,-99.99,,,-99.99,,2013-04-05 19:41:00,
2013-04-05 12:52:00,59.0,54.0,30.19,North,355,1.0,-999.0,82,-99.99,,,-99.99,,2013-04-05 19:52:00,
2013-04-05 13:02:00,59.0,54.0,30.19,North,355,1.0,-999.0,82,-99.99,,,-99.99,,2013-04-05 20:02:00,
2013-04-05 13:22:00,61.0,54.0,30.16,NE,42,1.0,-999.0,77,-99.99,,,-99.99,,2013-04-05 20:22:00,
2013-04-05 13:32:00,61.0,54.0,30.16,NE,42,1.0,-999.0,77,-99.99,,,-99.99,,2013-04-05 20:32:00,
2013-04-05 13:42:00,61.0,54.0,30.16,NE,42,1.0,-999.0,77,-99.99,,,-99.99,,2013-04-05 20:42:00,
2013-04-05 14:02:00,63.0,54.0,30.14,NNW,346,1.0,-999.0,72,-99.99,,,-99.99,,2013-04-05 21:02:00,
2013-04-05 14:12:00,63.0,54.0,30.14,NNW,346,1.0,-999.0,72,-99.99,,,-99.99,,2013-04-05 21:12:00,
2013-04-05 14:23:00,63.0,54.0,30.14,SSW,213,1.0,-999.0,72,-99.99,,,-99.99,,2013-04-05 21:23:00,
2013-04-05 14:32:00,63.0,53.0,30.14,SE,141,1.0,-999.0,70,-99.99,,,-99.99,,2013-04-05 21:32:00,
2013-04-05 14:42:00,63.0,53.0,30.14,SE,141,1.0,-999.0,70,-99.99,,,-99.99,,2013-04-05 21:42:00,
2013-04-05 14:53:00,65.0,55.0,30.14,NE,42,0.0,-999.0,70,-99.99,,,-99.99,,2013-04-05 21:53:00,
2013-04-05 15:02:00,66.0,55.0,30.14,North,5,1.0,-999.0,68,-99.99,,,-99.99,,2013-04-05 22:02:00,
2013-04-05 15:12:00,66.0,55.0,30.14,North,5,1.0,-999.0,68,-99.99,,,-99.99,,2013-04-05 22:12:00,
2013-04-05 15:22:00,66.0,55.0,30.14,SW,232,1.0,-999.0,68,-99.99,,,-99.99,,2013-04-05 22:22:00,
2013-04-05 15:32:00,67.0,56.0,30.13,NNE,33,1.0,-999.0,67,-99.99,,,-99.99,,2013-04-05 22:32:00,
2013-04-05 15:42:00,67.0,56.0,30.13,NNE,33,1.0,-999.0,67,-99.99,,,-99.99,,2013-04-05 22:42:00,
2013-04-05 15:52:00,66.0,54.0,30.14,ESE,103,1.0,-999.0,66,-99.99,,,-99.99,,2013-04-05 22:52:00,
2013-04-05 16:02:00,66.0,55.0,30.13,WNW,290,1.0,-999.0,68,-99.99,,,-99.99,,2013-04-05 23:02:00,
2013-04-05 16:12:00,66.0,55.0,30.13,WNW,290,1.0,-999.0,68,-99.99,,,-99.99,,2013-04-05 23:12:00,
2013-04-05 16:22:00,66.0,54.0,30.13,ENE,66,0.0,-999.0,66,-99.99,,,-99.99,,2013-04-05 23:22:00,
2013-04-05 16:32:00,65.0,54.0,30.12,ENE,63,0.0,-999.0,67,-99.99,,,-99.99,,2013-04-05 23:32:00,
2013-04-05 16:42:00,65.0,54.0,30.12,ENE,63,0.0,-999.0,67,-99.99,,,-99.99,,2013-04-05 23:42:00,
2013-04-05 16:52:00,65.0,55.0,30.13,SSE,151,1.0,-999.0,69,-99.99,,,-99.99,,2013-04-05 23:52:00,
2013-04-05 17:02:00,66.0,55.0,30.14,SSE,166,1.0,-999.0,68,-99.99,,,-99.99,,2013-04-06 00:02:00,
2013-04-05 17:12:00,66.0,55.0,30.14,SSE,166,1.0,-999.0,68,-99.99,,,-99.99,,2013-04-06 00:12:00,
2013-04-05 17:22:00,65.0,54.0,30.12,SSW,192,1.0,-999.0,67,-99.99,,,-99.99,,2013-04-06 00:22:00,
2013-04-05 17:32:00,63.0,53.0,30.11,SE,124,1.0,-999.0,69,-99.99,,,-99.99,,2013-04-06 00:32:00,
2013-04-05 17:42:00,63.0,53.0,30.11,SE,124,1.0,-999.0,69,-99.99,,,-99.99,,2013-04-06 00:42:00,
2013-04-05 17:51:00,62.0,52.0,30.11,SE,131,2.0,-999.0,71,-99.99,,,-99.99,,2013-04-06 00:51:00,
2013-04-05 18:02:00,61.0,52.0,30.11,SE,137,1.0,-999.0,72,-99.99,,,-99.99,,2013-04-06 01:02:00,
2013-04-05 18:12:00,61.0,52.0,30.11,SE,137,1.0,-999.0,72,-99.99,,,-99.99,,2013-04-06 01:12:00,
2013-04-05 18:21:00,61.0,52.0,30.14,SW,230,1.0,-999.0,73,-99.99,,,-99.99,,2013-04-06 01:21:00,
2013-04-05 18:32:00,59.0,51.0,30.13,NE,39,1.0,-999.0,75,-99.99,,,-99.99,,2013-04-06 01:32:00,
2013-04-05 18:42:00,59.0,51.0,30.13,NE,39,1.0,-999.0,75,-99.99,,,-99.99,,2013-04-06 01:42:00,
2013-04-05 18:52:00,59.0,52.0,30.12,SSW,209,1.0,-999.0,77,-99.99,,,-99.99,,2013-04-06 01:52:00,
2013-04-05 19:02:00,59.0,52.0,30.12,SSW,209,1.0,-999.0,77,-99.99,,,-99.99,,2013-04-06 02:02:00,
2013-04-05 19:12:00,59.0,52.0,30.12,SSW,209,1.0,-999.0,77,-99.99,,,-99.99,,2013-04-06 02:12:00,
2013-04-05 19:21:00,57.0,51.0,30.14,North,360,0.0,-999.0,80,-99.99,,,-99.99,,2013-04-06 02:21:00,
2013-04-05 19:32:00,56.0,50.0,30.13,SSW,208,1.0,-999.0,81,-99.99,,,-99.99,,2013-04-06 02:32:00,
2013-04-05 19:43:00,56.0,50.0,30.13,SSW,208,1.0,-999.0,81,-99.99,,,-99.99,,2013-04-06 02:43:00,
2013-04-05 19:52:00,56.0,50.0,30.13,SSW,208,1.0,-999.0,81,-99.99,,,-99.99,,2013-04-06 02:52:00,
2013-04-05 20:02:00,55.0,50.0,30.14,SSW,207,0.0,-999.0,84,-99.99,,,-99.99,,2013-04-06 03:02:00,
2013-04-05 20:12:00,55.0,50.0,30.14,SSW,207,0.0,-999.0,84,-99.99,,,-99.99,,2013-04-06 03:12:00,
2013-04-05 20:21:00,54.0,50.0,30.14,SSW,209,0.0,-999.0,85,-99.99,,,-99.99,,2013-04-06 03:21:00,
2013-04-05 20:33:00,54.0,50.0,30.15,SSW,209,0.0,-999.0,86,-99.99,,,-99.99,,2013-04-06 03:33:00,
2013-04-05 20:42:00,54.0,50.0,30.15,SSW,209,0.0,-999.0,86,-99.99,,,-99.99,,2013-04-06 03:42:00,
2013-04-05 20:52:00,54.0,50.0,30.14,SSW,209,0.0,-999.0,86,-99.99,,,-99.99,,2013-04-06 03:52:00,
2013-04-05 21:02:00,53.0,49.0,30.15,SSW,209,0.0,-999.0,87,-99.99,,,-99.99,,2013-04-06 04:02:00,
2013-04-05 21:13:00,53.0,49.0,30.15,SSW,209,0.0,-999.0,87,-99.99,,,-99.99,,2013-04-06 04:13:00,
2013-04-05 21:22:00,53.0,49.0,30.15,West,271,0.0,-999.0,87,-99.99,,,-99.99,,2013-04-06 04:22:00,
2013-04-05 21:32:00,53.0,50.0,30.16,West,271,0.0,-999.0,88,-99.99,,,-99.99,,2013-04-06 04:32:00,
2013-04-05 21:42:00,53.0,50.0,30.16,West,271,0.0,-999.0,88,-99.99,,,-99.99,,2013-04-06 04:42:00,
2013-04-05 21:52:00,53.0,50.0,30.17,West,271,0.0,-999.0,89,-99.99,,,-99.99,,2013-04-06 04:52:00,
2013-04-05 22:02:00,53.0,50.0,30.17,West,271,0.0,-999.0,89,-99.99,,,-99.99,,2013-04-06 05:02:00,
2013-04-05 22:12:00,53.0,50.0,30.17,West,271,0.0,-999.0,89,-99.99,,,-99.99,,2013-04-06 05:12:00,
2013-04-05 22:21:00,53.0,50.0,30.17,West,271,0.0,-999.0,89,-99.99,,,-99.99,,2013-04-06 05:21:00,
2013-04-05 22:32:00,53.0,50.0,30.17,West,271,0.0,-999.0,89,-99.99,,,-99.99,,2013-04-06 05:32:00,
2013-04-05 22:42:00,53.0,50.0,30.17,West,271,0.0,-999.0,89,-99.99,,,-99.99,,2013-04-06 05:42:00,
2013-04-05 22:51:00,53.0,50.0,30.17,West,271,0.0,-999.0,90,-99.99,,,-99.99,,2013-04-06 05:51:00,
2013-04-05 23:02:00,53.0,50.0,30.17,West,271,0.0,-999.0,90,-99.99,,,-99.99,,2013-04-06 06:02:00,
2013-04-05 23:12:00,53.0,50.0,30.17,West,271,0.0,-999.0,90,-99.99,,,-99.99,,2013-04-06 06:12:00,
2013-04-05 23:22:00,53.0,50.0,30.17,West,271,0.0,-999.0,90,-99.99,,,-99.99,,2013-04-06 06:22:00,
2013-04-05 23:32:00,53.0,50.0,30.17,West,271,0.0,-999.0,90,-99.99,,,-99.99,,2013-04-06 06:32:00,
2013-04-05 23:42:00,53.0,50.0,30.17,West,271,0.0,-999.0,90,-99.99,,,-99.99,,2013-04-06 06:42:00,
2013-04-05 23:52:00,53.0,50.0,30.17,West,271,0.0,-999.0,90,-99.99,,,-99.99,,2013-04-06 06:52:00,